Minnetonka Beach, MN (55361)

8:57 PM CST on February 07, 2016 (GMT -0600)
Carman Bay | | Change Station
CLOSE
Current Station
Personal Weather Station
Location: Navarre, MN
Elevation: 935 ft
Nearby Weather Stations
Active Advisory: Winter Weather Advisory Active Notice: Public Information Statement

Elev 935 ft 44.93 °N, 93.61 °W | Updated 18 seconds ago

Overcast
Overcast
19.3 °F
Feels Like 11 °F
N
5.8
Wind Variable Wind from South
Gusts 5.8 mph

Today
High -- | Low -- °F
--% Chance of Precip.
Yesterday
High -- | Low -- °F
Precip. -- in
Pressure 29.78 in
Visibility 2.0 miles
Clouds Overcast 2400 ft
Windchill 11 °F
Dew Point 14 °F
Humidity 78%
Rainfall in
Snow Depth Not available.
7:27 AM 5:30 PM
Waning Crescent, 0% visible
METAR KFCM 080253Z AUTO 31020G28KT 2SM -SN OVC024 M06/M10 A2975 RMK AO2 PK WND 32031/0154 SLP084 P0000 60000 T10611100 50008
Pressure 29.78 in
Visibility 2.0 miles
Clouds Overcast 2400 ft
Windchill 11 °F
Dew Point 14 °F
Humidity 78%
Rainfall in
Snow Depth Not available.
7:27 AM 5:30 PM
Waning Crescent, 0% visible
METAR KFCM 080253Z AUTO 31020G28KT 2SM -SN OVC024 M06/M10 A2975 RMK AO2 PK WND 32031/0154 SLP084 P0000 60000 T10611100 50008

10-Day Weather Forecast

Almanac

Astronomy

Feb. 07, 2016 Rise Set
Actual Time
Civil Twilight
Nautical Twilight
Astronomical Twilight
Moon
Length of Visible Light
Length of Day
Tomorrow will be .
, % of the Moon is Illuminated

Today's Extremes

State Highs State Lows

Community

WunderPhotos

Upload Photos

1,891,373 photos uploaded!

WunderBlog® & News

Nearby

Air Quality

  Air Quality AQ Index Pollutant
Not available.

Snow Depth

Station Depth Elevation

Earthquake Activity

City Distance Mag. Time & Date
Minimum magnitude displayed is 2.5.

Coastal Water Temperatures

Place Temperature

Stations

Nearby Weather Stations

Station Location Temp. Windchill Dew Point Humidity Wind Precip. Elev Updated Type
                   

Watches & Warnings

Winter Weather Advisory
Issued: 8:21 PM CST Feb. 7, 2016 – National Weather Service

... Winter Weather Advisory remains in effect until noon CST
Monday...

* expect occasional light snow through Monday morning.

* Total snow accumulations of up to 1 inch are expected.

* Winds gusting as high as 40 mph will cause widespread blowing
and drifting snow.

* Plan on slippery Road conditions.

Precautionary/preparedness actions...

A Winter Weather Advisory for snow means periods of snow will
cause primarily travel difficulties. Be prepared for snow covered
roads and limited visibilities... and use caution while driving.
The latest Road conditions for the state you are calling from can
be obtained by calling 5 1 1.